Total_Precipitation_Accumulation
0.01 0.04 0.11 0.27 0.46 0.46 0.36 0.25 0.18 0.20 0.24 0.29 0.32 0.44 0.50 0.59 0.77 0.91 0.99 1.03 1.04 0.99 0.95 0.87 0.77 0.64 0.56 0.48 0.38 0.30 0.23 0.18 0.14 0.11 0.07 0.04 0.03 0.02 0.01 0.01 0.01 0.01 0.01
0.02 0.05 0.12 0.31 0.46 0.46 0.39 0.35 0.38 0.41 0.45 0.61 0.81 1.01 1.20 1.39 1.58 1.70 1.70 1.63 1.49 1.35 1.21 1.07 0.92 0.74 0.60 0.48 0.37 0.27 0.19 0.13 0.10 0.09 0.06 0.03 0.01 0.00 0.00 0.00 0.00 0.00 0.00
0.03 0.05 0.10 0.17 0.32 0.43 0.47 0.51 0.62 0.72 0.82 1.04 1.27 1.54 1.85 2.06 2.06 1.95 1.85 1.74 1.59 1.43 1.24 1.05 0.90 0.76 0.59 0.45 0.33 0.22 0.14 0.09 0.06 0.04 0.05 0.04 0.02 0.01 0.00 0.00 0.00 0.00 0.00
0.02 0.04 0.08 0.14 0.23 0.35 0.44 0.54 0.69 0.96 1.29 1.67 1.98 2.18 2.29 2.29 2.11 1.87 1.66 1.42 1.23 1.10 0.96 0.87 0.79 0.64 0.47 0.34 0.23 0.15 0.09 0.06 0.04 0.03 0.03 0.03 0.03 0.03 0.02 0.00 0.00 0.00 0.00
0.03 0.04 0.08 0.15 0.29 0.40 0.55 0.73 0.95 1.29 1.64 1.94 2.16 2.30 2.23 2.00 1.71 1.43 1.15 0.90 0.75 0.71 0.67 0.60 0.49 0.36 0.26 0.20 0.14 0.09 0.07 0.05 0.04 0.03 0.02 0.02 0.01 0.02 0.03 0.02 0.01 0.00 0.00
0.03 0.05 0.09 0.16 0.29 0.48 0.69 0.88 1.09 1.41 1.69 1.80 1.89 1.84 1.74 1.52 1.21 0.92 0.68 0.53 0.45 0.39 0.33 0.29 0.25 0.20 0.14 0.11 0.09 0.06 0.05 0.03 0.03 0.02 0.02 0.02 0.02 0.02 0.02 0.02 0.01 0.01 0.00
0.04 0.07 0.13 0.21 0.33 0.50 0.70 0.84 0.99 1.18 1.33 1.42 1.48 1.34 1.12 0.91 0.72 0.55 0.42 0.33 0.28 0.25 0.21 0.15 0.11 0.08 0.06 0.05 0.04 0.03 0.02 0.02 0.02 0.01 0.01 0.01 0.01 0.01 0.01 0.02 0.02 0.02 0.01
0.09 0.13 0.18 0.25 0.38 0.48 0.61 0.72 0.78 0.83 0.84 0.81 0.77 0.69 0.59 0.48 0.38 0.30 0.23 0.19 0.15 0.12 0.09 0.06 0.05 0.04 0.03 0.02 0.02 0.01 0.01 0.01 0.01 0.01 0.02 0.01 0.01 0.01 0.03 0.04 0.06 0.06 0.03
0.14 0.18 0.24 0.30 0.35 0.39 0.43 0.43 0.41 0.42 0.39 0.33 0.30 0.27 0.23 0.20 0.18 0.15 0.11 0.08 0.06 0.05 0.04 0.03 0.02 0.02 0.01 0.01 0.01 0.01 0.01 0.01 0.02 0.03 0.03 0.03 0.03 0.03 0.03 0.04 0.07 0.13 0.13
0.17 0.23 0.26 0.27 0.25 0.24 0.22 0.20 0.19 0.18 0.15 0.13 0.11 0.10 0.09 0.08 0.07 0.06 0.05 0.04 0.03 0.02 0.01 0.01 0.01 0.01 0.01 0.01 0.01 0.01 0.01 0.02 0.03 0.04 0.05 0.06 0.05 0.05 0.05 0.06 0.08 0.13 0.18
0.25 0.29 0.29 0.21 0.16 0.14 0.12 0.11 0.12 0.10 0.08 0.07 0.07 0.06 0.05 0.04 0.03 0.03 0.02 0.02 0.01 0.01 0.01 0.01 0.00 0.00 0.01 0.01 0.01 0.02 0.02 0.03 0.04 0.05 0.06 0.07 0.07 0.08 0.07 0.07 0.08 0.09 0.14
0.36 0.36 0.30 0.19 0.12 0.09 0.08 0.08 0.08 0.07 0.07 0.06 0.05 0.04 0.04 0.03 0.02 0.02 0.01 0.01 0.01 0.01 0.01 0.01 0.01 0.01 0.01 0.01 0.02 0.03 0.03 0.05 0.05 0.05 0.05 0.05 0.06 0.08 0.07 0.07 0.06 0.08 0.12
0.54 0.38 0.24 0.14 0.09 0.07 0.08 0.09 0.08 0.08 0.06 0.04 0.03 0.03 0.02 0.01 0.01 0.01 0.01 0.01 0.01 0.01 0.01 0.01 0.01 0.01 0.01 0.02 0.03 0.04 0.04 0.04 0.03 0.03 0.03 0.04 0.05 0.06 0.06 0.07 0.08 0.10 0.13
0.32 0.19 0.13 0.09 0.09 0.11 0.12 0.09 0.07 0.06 0.03 0.02 0.02 0.01 0.01 0.01 0.01 0.01 0.01 0.01 0.01 0.01 0.01 0.01 0.01 0.01 0.02 0.02 0.02 0.02 0.01 0.01 0.01 0.01 0.02 0.03 0.05 0.07 0.10 0.10 0.11 0.14 0.16
0.25 0.19 0.16 0.13 0.12 0.12 0.09 0.06 0.05 0.04 0.02 0.02 0.02 0.02 0.02 0.02 0.02 0.02 0.02 0.02 0.02 0.01 0.01 0.01 0.01 0.01 0.01 0.01 0.00 0.00 0.00 0.00 0.01 0.01 0.02 0.03 0.05 0.11 0.13 0.14 0.16 0.18 0.21
0.31 0.23 0.18 0.15 0.12 0.10 0.09 0.07 0.07 0.07 0.06 0.05 0.05 0.05 0.05 0.05 0.05 0.04 0.03 0.02 0.02 0.02 0.01 0.01 0.00 0.00 0.00 0.00 0.00 0.00 0.00 0.01 0.01 0.02 0.03 0.03 0.03 0.06 0.07 0.09 0.13 0.19 0.25
0.30 0.23 0.19 0.17 0.16 0.16 0.16 0.15 0.15 0.13 0.11 0.11 0.11 0.10 0.10 0.08 0.06 0.04 0.02 0.02 0.01 0.01 0.01 0.00 0.00 0.01 0.01 0.00 0.00 0.00 0.00 0.01 0.04 0.05 0.05 0.04 0.04 0.07 0.08 0.08 0.08 0.10 0.16
0.30 0.25 0.22 0.23 0.26 0.26 0.24 0.23 0.20 0.17 0.17 0.18 0.16 0.12 0.09 0.07 0.04 0.02 0.01 0.01 0.01 0.00 0.01 0.01 0.01 0.01 0.01 0.00 0.00 0.00 0.01 0.02 0.04 0.05 0.06 0.08 0.09 0.09 0.09 0.07 0.06 0.09 0.15
0.26 0.29 0.32 0.35 0.36 0.34 0.29 0.25 0.22 0.20 0.18 0.15 0.11 0.07 0.05 0.03 0.02 0.01 0.00 0.00 0.01 0.01 0.01 0.01 0.01 0.02 0.03 0.01 0.00 0.00 0.01 0.02 0.02 0.02 0.03 0.06 0.08 0.09 0.10 0.10 0.10 0.13 0.18
0.29 0.37 0.38 0.37 0.33 0.28 0.21 0.18 0.16 0.13 0.10 0.06 0.04 0.02 0.01 0.01 0.00 0.00 0.00 0.01 0.01 0.01 0.01 0.01 0.01 0.03 0.04 0.01 0.00 0.01 0.02 0.02 0.02 0.02 0.03 0.05 0.08 0.10 0.10 0.10 0.15 0.21 0.26
0.37 0.37 0.34 0.30 0.25 0.18 0.13 0.11 0.09 0.06 0.03 0.02 0.01 0.01 0.01 0.00 0.00 0.00 0.00 0.01 0.01 0.01 0.01 0.01 0.02 0.03 0.03 0.02 0.00 0.01 0.03 0.04 0.05 0.06 0.07 0.09 0.13 0.14 0.11 0.12 0.19 0.31 0.43
0.35 0.33 0.27 0.20 0.14 0.10 0.08 0.06 0.04 0.02 0.01 0.01 0.01 0.01 0.01 0.00 0.00 0.01 0.01 0.01 0.01 0.01 0.01 0.01 0.02 0.02 0.03 0.02 0.01 0.00 0.01 0.03 0.07 0.12 0.13 0.15 0.19 0.16 0.16 0.20 0.31 0.43 0.59
0.27 0.20 0.13 0.09 0.07 0.05 0.03 0.03 0.02 0.01 0.01 0.02 0.02 0.01 0.01 0.00 0.00 0.01 0.01 0.01 0.01 0.01 0.01 0.02 0.02 0.02 0.03 0.03 0.01 0.01 0.01 0.03 0.07 0.15 0.21 0.24 0.22 0.23 0.28 0.37 0.50 0.57 0.63
0.10 0.07 0.05 0.04 0.03 0.02 0.01 0.01 0.01 0.01 0.02 0.02 0.02 0.03 0.02 0.01 0.01 0.01 0.01 0.01 0.02 0.02 0.02 0.03 0.03 0.04 0.04 0.04 0.03 0.03 0.04 0.06 0.09 0.15 0.24 0.34 0.36 0.38 0.44 0.50 0.56 0.58 0.65
0.05 0.04 0.03 0.02 0.01 0.01 0.01 0.01 0.01 0.01 0.02 0.03 0.03 0.03 0.02 0.01 0.01 0.01 0.01 0.01 0.02 0.01 0.02 0.03 0.04 0.06 0.06 0.05 0.06 0.08 0.09 0.12 0.15 0.17 0.24 0.30 0.35 0.40 0.44 0.44 0.48 0.50 0.50
0.04 0.02 0.01 0.01 0.00 0.00 0.00 0.00 0.01 0.01 0.02 0.02 0.02 0.02 0.01 0.01 0.01 0.01 0.02 0.01 0.00 0.00 0.01 0.02 0.03 0.04 0.06 0.05 0.04 0.06 0.09 0.14 0.18 0.19 0.28 0.39 0.47 0.51 0.52 0.48 0.48 0.48 0.43